Location: Bijele Vode
(45.2833°N, 16.2000°E)
Time: 13:31:26
(UTC+00:00)

H-2A R/B - Pass Details

Date: 18 September 2020
Orbit: 734 x 836 km, 98.2° (Epoch: 30 October)

Event Time Altitude Azimuth Distance (km) Brightness Sun altitude
Rises 17:32:51 0° 152° (SSE) 3,158 4.8 -6.6°
Reaches altitude 10° 17:35:09 10° 148° (SSE) 2,246 4.0 -7.0°
Maximum altitude 17:39:57 55° 71° (ENE) 902 2.1 -7.8°
Drops below altitude 10° 17:44:53 10° 355° (N) 2,310 4.7 -8.7°
Sets 17:47:16 0° 351° (N) 3,257 5.5 -9.1°
